Location: Camerons Lookout
(40.9833°S, 175.9333°E)
Time: 11:06:05
(UTC+00:00)

Cosmos 1536 Rocket - Pass Details

Date: 14 January 2026
Orbit: 599 x 624 km, 82.5° (Epoch: 16 February)

Event Time Altitude Azimuth Distance (km) Brightness Sun altitude
Rises 11:08:27 0° 187° (S) 2,942 8.3 -25.2°
Reaches altitude 10° 11:10:43 10° 185° (S) 2,024 7.2 -25.4°
Enters shadow 11:14:45 68° 150° (SSE) 681 3.8 -25.6°
